sat.trackr.live / text

‹ back to catalog

SUPERBIRD-C2

NORAD 33274 · 2008-038A

PAYLOAD ACTIVE UNKNOWN

§ Identity

Operator
Country
JPN
Launch date
2008-08-14
Launch site
FRGUI
Launch vehicle
Mass (kg)
RCS (m²)
12.62

Purposes: comms

External: N2YO · Heavens-Above · Gunter

§ Orbital elements

Epoch: 2026-09-19T20:41:38.647104Z

Period
1,436.11 min
Inclination
2.5980°
Eccentricity
0.0005672
Mean motion
1.00270720 rev/d
Perigee alt
35,763.0 km
Apogee alt
35,810.8 km
Semi-major
42,165.0 km
B*
0.0000e+0
RAAN
79.9945°
Arg perigee
71.3420°
Mean anomaly
293.8645°
Rev number
10,668

§ Raw data

SUPERBIRD-C21 33274U 08038A   26262.86225286 -.00000310  00000+0  00000+0 0  99982 33274   2.5980  79.9945 0005672  71.3420 293.8645  1.00270720106682

JSON: /api/v1/satellites/33274 · /tle

For live sub-satellite position, see the globe view (requires WebGL).

§ Visibility from observer

Set your observer location to see the next 7 days of passes ≥ 10°. The values pass through the URL so the page stays shareable.

No JS? Fill the form by hand. The geolocation button needs JavaScript.